Вернуться в каталог

CZ-4 DEB

АктивенPO
NORAD 26127·DEBRIS·🇨🇳 China

Запущен Oct 14, 1999 с Taiyuan Satellite Launch Center

Loading…

Ближайшие Пролёты (ближайшие 24 часа)

TLE

СвежийSource: Space-Track

Эпоха: Sep 13, 2026, 11:21 UTC

1 26127U 99057P   26256.47294095  .00013128  00000-0  11451-2 0  9998
2 26127  98.4566  78.0706 0050891 162.2529 252.6811 14.95987163397913

Отслеживайте CZ-4 DEB в реальном времени с AllMySat

Download on the App Store